Location: Las Navas
(40.6024°N, 4.3345°W)
Time: 07:37:23
(UTC+00:00)

Cosmos 2251 Rocket - Pass Details

Date: 03 April 2020
Orbit: 765 x 791 km, 74.0° (Epoch: 29 May)

Event Time Altitude Azimuth Distance (km) Brightness Sun altitude
Rises 19:59:59 0° 203° (SSW) 3,261 6.8 -14.7°
Reaches altitude 10° 20:02:22 10° 205° (SSW) 2,340 6.1 -15.1°
Maximum altitude 20:07:41 72° 290° (WNW) 831 3.8 -16.0°
Drops below altitude 10° 20:13:04 10° 15° (NNE) 2,364 6.1 -17.0°
Sets 20:15:29 0° 18° (NNE) 3,297 6.9 -17.4°
